Regional Weather Roundup
Issued by NWS Boston, MA

Home | Current Version | Previous Version | Text Only | Print | Product List | Glossary On
Versions: 1 2 3 4 5 6 7 8 9 10 11 12 13 14 15 16 17 18 19 20 21 22 23 24 25 26 27 28 29 30 31 32 33 34 35 36 37 38 39 40 41 42 43 44 45 46 47 48 49 50
000
ASUS41 KBOX 051710
RWRBOX

REGIONAL WEATHER ROUNDUP
NATIONAL WEATHER SERVICE TAUNTON MA
100 PM EDT TUE MAY 05 2015

NOTE:  "FAIR" INDICATES FEW OR NO CLOUDS BELOW 12,000 FEET WITH NO
SIGNIFICANT WEATHER AND/OR OBSTRUCTIONS TO VISIBILITY.  THE FOLLOWING
OBSERVATION LOCATIONS DO NOT REPORT PRESENT WEATHER...PROVINCETOWN...
SMITHFIELD...BLOCK ISLAND...KEENE...AND OXFORD.

MAZALL-051800-
EASTERN MASSACHUSETTS

CITY           SKY/WX    TMP DP  RH WIND       PRES   REMARKS
BOSTON         PTSUNNY   67  59  75 S8        30.20F
BEVERLY        MOSUNNY   72  53  51 SE10      30.18F
LAWRENCE       MOSUNNY   74  45  35 NW6       30.19F
BEDFORD        PTSUNNY   72  53  51 CALM      30.18F
BLUE HILL        N/A     68  55  63 SW5       30.20F
NORWOOD        PTSUNNY   71  53  52 NW3       30.20F
MARSHFIELD     PTSUNNY   70  55  60 CALM      30.22F
PLYMOUTH       PTSUNNY   69  53  56 N6        30.21F
TAUNTON        CLOUDY    71  52  50 CALM      30.20F
NEW BEDFORD    PTSUNNY   72  54  53 NE3       30.20S
$$

MAZALL-051800-
CAPE COD AND THE ISLANDS

CITY           SKY/WX    TMP DP  RH WIND       PRES   REMARKS
FALMOUTH       CLOUDY    68  52  56 NE9       30.21S
HYANNIS        CLOUDY    64  51  62 N9        30.20R
CHATHAM        CLOUDY    66  53  63 NE5       30.22
PROVINCETOWN   CLOUDY    57  52  82 CALM      30.22S
NANTUCKET      MOSUNNY   62  49  62 W8        30.22R
MARTHAS VNYRD  PTSUNNY  N/A N/A N/A CALM      30.21R
$$

MAZALL-051800-
CENTRAL AND WESTERN MASSACHUSETTS

CITY           SKY/WX    TMP DP  RH WIND       PRES   REMARKS
WORCESTER      MOSUNNY   71  52  50 VRB7      30.21F
FITCHBURG      MOSUNNY   79  41  25 NW12      30.18F
ORANGE         MOSUNNY   76  43  30 VRB3      30.18F
SPRINGFIELD    NOT AVBL
WESTFIELD      MOSUNNY   78  50  37 SE6       30.18F
NORTH ADAMS    MOSUNNY   72  42  34 VRB3      30.22F
PITTSFIELD     PTSUNNY   72  45  37 NW12      30.22F
$$

RIZALL-051800-
RHODE ISLAND

CITY           SKY/WX    TMP DP  RH WIND       PRES   REMARKS
PROVIDENCE     PTSUNNY   73  54  51 N6        30.21S
NEWPORT        PTSUNNY   73  54  51 VRB5      30.20F
BLOCK ISLAND   PTSUNNY   63  48  59 SW6       30.22F
SMITHFIELD     MOSUNNY   72  50  46 NE3       30.21F
WESTERLY       PTSUNNY   73  51  46 SW5       30.20F
$$

CTZALL-051800-
CONNECTICUT

CITY           SKY/WX    TMP DP  RH WIND       PRES   REMARKS
BRADLEY INTL   PTSUNNY   79  51  37 NW7       30.18F
HARTFORD       MOSUNNY   76  49  38 SE8       30.19F
BRIDGEPORT     PTSUNNY   72  51  47 SW9       30.21S
DANBURY        PTSUNNY   75  52  44 SW5       30.21F
GROTON         PTSUNNY   61  49  64 S8        30.19F
NEW HAVEN      PTSUNNY   64  52  64 W3        30.20S
CHESTER        NOT AVBL
MERIDEN        MOSUNNY   78  50  37 W5        30.19F
WILLIMANTIC    MOSUNNY   79  49  34 MISG      30.19F
OXFORD         PTSUNNY   75  54  46 N7        30.22F
$$

MEZ002-015-021-024-NHZ003-005-008-011-012-014-VTZ005-008-051800-
NORTHERN NEW ENGLAND

CITY           SKY/WX    TMP DP  RH WIND       PRES   REMARKS
PORTLAND ME    CLOUDY    73  42  32 NW13      30.19S
BANGOR ME      PTSUNNY   66  29  24 NW15      30.15F
CONCORD NH     MOSUNNY   76  34  21 NW9G17    30.19F
MANCHESTER NH  PTSUNNY   77  33  20 N15G22    30.17F
NASHUA NH      MOSUNNY   77  43  29 N8G20     30.18F
PORTSMOUTH NH  PTSUNNY   76  35  22 NW13      30.17S
JAFFREY NH     MOSUNNY   74  36  25 NW13      30.21F
KEENE NH       PTSUNNY   73  34  23 N12G17    30.21F
BURLINGTON VT  MOSUNNY   66  34  30 VRB3      30.25F
MT. WASHINGTON MOSUNNY   36  27  69 NW37        N/A  WCI  21
$$

NYZ052-076-051800-
EASTERN NEW YORK

CITY           SKY/WX    TMP DP  RH WIND       PRES   REMARKS
ALBANY         PTSUNNY   75  44  33 VRB5      30.21F
NEW YORK CITY  CLOUDY    77  54  44 N7        30.20F
$$

ANZALL-051800-
MARINE OBSERVATIONS

STATION/POSITION TIME  TEMP    WIND        PRES    VSBY  WAVE
                       AIR SEA DIR/SP/G                  HT/PER
                 (UTC) (F)     (DEG/KT/KT) (MB)    (MI)  (FT/S)
BOSTON BUOY      1650   55 47  210/  6/  6   N/A           2/11
BUZZARDS BAY     1600          210/ 10/ 11   N/A
NANTUCKET SOUND  1650   52 50  230/  8/  8   N/A           1/ 4
MASS BAY-STELLWA 1604   51 47  230/  6/  8   N/A    1 3/4  2/11
ISLE OF SHOALS   1600   70     330/ 11/ 11   N/A
S OF BLOCK IS    1608      47                N/A           4/ 5
$$

......................KEY.........................
  SKY/WX - SKY CONDITION/PRESENT WEATHER
  TMP    - TEMPERATURE IN FAHRENHEIT
  DWPT   - DEWPOINT IN FAHRENHEIT
  RH     - RELATIVE HUMIDITY IN PERCENT
  WIND   - DIRECTION AND SPEED IN MPH
  PRES   - MEAN SEA LEVEL PRESSURE IN INCHES OF HG
  WCI    - WIND CHILL INDEX
  VSB    - VISIBILITY IN MILES
  HX     - HEAT INDEX
  TC     - TEMPERATURE IN CELSIUS
  VRB    - VARIABLE WIND DIRECTION
  N/A    - NOT AVAILABLE



USA.gov is the U.S. government's official web portal to all federal, state and local government web resources and services.